DW1637 Weather Reports


time (UTC)temp
C
wind
direction
speed
KPH
gust
KPH
rain 1hr
cm
rain 24hr
cm
rain mn
cm
humidity
%
barometer
mb
20260502164203 20 20 6.4 12.9 0.00 0.46 0.00 48 1020.5
20260502163203 20 68 6.4 12.9 0.00 0.51 0.00 56 1020.5
20260502162703 20 87 8.0 12.9 0.00 0.56 0.00 51 1020.6
20260502162203 20 355 6.4 12.9 0.00 0.58 0.00 52 1020.5
20260502161704 20 11 6.4 12.9 0.00 0.64 0.00 51 1020.5
20260502161204 20 80 3.2 12.9 0.00 0.66 0.00 52 1020.4
20260502160204 20 58 4.8 11.3 0.00 0.74 0.00 52 1020.5
20260502152204 18 334 6.4 11.3 0.00 1.02 0.00 57 1020.3
20260502151704 18 328 4.8 14.5 0.00 1.04 0.00 60 1020.2
20260502151204 18 8 8.0 14.5 0.00 1.07 0.00 59 1020.2
20260502150704 18 5 6.4 16.1 0.00 1.09 0.00 62 1020.1
20260502150203 18 17 6.4 12.9 0.00 1.12 0.00 66 1020.1
20260502130204 13 346 3.2 11.3 0.00 1.55 0.00 92 1019.4
20260502123704 12 14 1.6 4.8 0.00 1.68 0.00 95 1018.6
20260502123204 12 5 1.6 3.2 0.00 1.70 0.00 96 1018.6
20260502122704 12 323 3.2 4.8 0.00 1.73 0.00 95 1018.5
20260502122204 12 324 1.6 3.2 0.00 1.75 0.00 95 1018.4
20260502121704 12 324 0.0 1.6 0.00 1.75 0.00 95 1018.3
20260502121204 12 324 0.0 0.0 0.00 1.75 0.00 95 1018.3
20260502120704 12 324 0.0 0.0 0.00 1.78 0.00 95 1018.2
20260502120203 12 324 0.0 0.0 0.00 1.78 0.00 95 1018.1
20260502115704 12 324 0.0 0.0 0.00 1.78 0.00 95 1018.0
20260502115203 12 324 0.0 0.0 0.00 1.78 0.00 94 1017.9
20260502114703 12 324 0.0 0.0 0.00 1.78 0.00 94 1017.8
20260502114203 12 324 0.0 0.0 0.00 1.78 0.00 94 1017.7
20260502113704 12 324 0.0 0.0 0.00 1.78 0.00 94 1017.6
20260502113204 12 324 0.0 1.6 0.00 1.78 0.00 94 1017.6
20260502112704 12 324 0.0 1.6 0.00 1.78 0.00 94 1017.5
20260502112204 12 324 0.0 0.0 0.00 1.78 0.00 94 1017.5
20260502111704 12 324 0.0 1.6 0.00 1.78 0.00 93 1017.4
20260502111204 12 324 0.0 1.6 0.00 1.78 0.00 93 1017.3
20260502110705 12 324 0.0 1.6 0.00 1.78 0.00 93 1017.3
20260502110204 12 324 0.0 1.6 0.00 1.78 0.00 93 1017.2
20260502105703 12 324 1.6 3.2 0.00 1.78 0.00 93 1017.0
20260502105203 12 324 0.0 0.0 0.00 1.78 0.00 93 1016.9
20260502104204 12 324 0.0 1.6 0.00 1.78 0.00 93 1016.8
20260502102704 12 324 1.6 3.2 0.00 1.78 0.00 93 1016.6
20260502101204 12 324 0.0 1.6 0.00 1.78 0.00 93 1016.6
20260502100704 12 321 0.0 3.2 0.00 1.78 0.00 93 1016.5
20260502100203 12 319 0.0 1.6 0.00 1.78 0.00 93 1016.5
20260502091204 13 355 1.6 3.2 0.00 1.78 0.00 93 1016.1
20260502090205 13 347 1.6 3.2 0.00 1.78 0.00 93 1016.3
20260502071204 13 331 1.6 3.2 0.00 1.78 0.00 94 1016.4
20260502070704 12 332 1.6 4.8 0.00 1.78 0.00 94 1016.4
20260502070204 12 345 1.6 3.2 0.00 1.78 0.00 94 1016.3
20260502065703 13 345 0.0 3.2 0.00 1.78 0.00 94 1016.2
20260502064704 13 5 0.0 4.8 0.00 1.78 0.00 94 1016.3
20260502064204 13 342 0.0 1.6 0.00 1.78 0.00 94 1016.4
20260502063704 13 342 1.6 3.2 0.00 1.78 0.00 94 1016.5
20260502063204 13 342 0.0 1.6 0.00 1.78 0.00 94 1016.6
20260502062704 13 342 0.0 1.6 0.00 1.78 0.00 94 1016.6
20260502061704 13 342 0.0 1.6 0.00 1.78 0.00 94 1016.6
20260502061203 13 331 1.6 3.2 0.00 1.78 0.00 94 1016.6
20260502060703 13 5 0.0 1.6 0.00 1.78 0.00 94 1016.6
20260502060204 13 5 0.0 1.6 0.00 1.78 0.00 94 1016.6
20260502054704 13 329 0.0 4.8 0.00 1.78 0.00 94 1016.6
20260502054204 13 333 1.6 3.2 0.00 1.78 0.00 95 1016.6
20260502053703 13 333 1.6 3.2 0.00 1.78 0.00 95 1016.6
20260502053204 13 355 0.0 3.2 0.00 1.78 0.00 95 1016.6
20260502052704 13 355 0.0 1.6 0.00 1.78 0.00 95 1016.5
20260502052204 13 355 0.0 1.6 0.00 1.78 0.00 95 1016.6
20260502051703 13 355 0.0 1.6 0.00 1.78 0.00 95 1016.6
20260502051204 13 355 0.0 0.0 0.00 1.78 0.00 95 1016.5
20260502050704 13 355 0.0 1.6 0.00 1.78 0.00 95 1016.4
20260502050204 13 355 0.0 3.2 0.00 1.78 0.00 95 1016.4
20260502045204 13 1 0.0 3.2 0.00 1.78 1.78 95 1016.0
20260502044703 13 0 1.6 4.8 0.00 1.78 1.78 95 1015.9
20260502044204 13 331 1.6 3.2 0.03 1.78 1.78 95 1015.9
20260502043204 13 286 1.6 3.2 0.03 1.78 1.78 95 1015.8
20260502042704 13 286 0.0 1.6 0.03 1.78 1.78 95 1015.9
20260502041703 13 212 0.0 1.6 0.03 1.78 1.78 95 1016.1
20260502041204 13 211 1.6 3.2 0.03 1.78 1.78 95 1016.1
20260502040205 13 292 1.6 3.2 0.03 1.78 1.78 95 1016.4
20260502035704 13 331 1.6 4.8 0.03 1.78 1.78 95 1016.3
20260502035204 13 139 0.0 1.6 0.03 1.78 1.78 95 1016.1
20260502034703 13 139 0.0 3.2 0.03 1.78 1.78 94 1016.2
20260502034204 13 191 3.2 4.8 0.00 1.75 1.75 95 1016.2
20260502033704 13 139 3.2 8.0 0.00 1.75 1.75 94 1016.0
20260502032704 13 296 0.0 0.0 0.00 1.75 1.75 94 1016.1
20260502032204 13 296 0.0 0.0 0.00 1.75 1.75 94 1016.3
20260502031704 13 296 1.6 3.2 0.00 1.75 1.75 94 1016.3
20260502031204 13 321 1.6 1.6 0.00 1.75 1.75 94 1016.0
20260502030703 13 253 0.0 0.0 0.00 1.75 1.75 94 1016.1
20260502030204 13 253 0.0 0.0 0.00 1.75 1.75 94 1016.3
20260502025704 13 253 0.0 0.0 0.00 1.75 1.75 94 1016.1
20260502025204 13 253 0.0 0.0 0.00 1.75 1.75 94 1015.9
20260502024704 13 253 0.0 0.0 0.00 1.75 1.75 94 1016.1
20260502024204 13 253 0.0 1.6 0.00 1.75 1.75 94 1016.2
20260502023704 13 253 1.6 3.2 0.03 1.75 1.75 94 1016.3
20260502023204 13 253 0.0 1.6 0.03 1.75 1.75 93 1016.4
20260502022703 13 253 1.6 3.2 0.03 1.75 1.75 93 1016.2
20260502021704 13 294 0.0 0.0 0.03 1.75 1.75 93 1015.9
20260502021204 13 294 0.0 3.2 0.05 1.75 1.75 93 1015.9
20260502020704 13 294 0.0 1.6 0.05 1.75 1.75 92 1015.9
20260502020204 13 294 0.0 4.8 0.05 1.75 1.75 92 1016.0
20260502015703 13 355 0.0 1.6 0.05 1.75 1.75 92 1015.7
20260502014704 13 355 0.0 3.2 0.05 1.75 1.75 92 1015.5
20260502014205 13 355 0.0 1.6 0.05 1.75 1.75 92 1015.5
20260502013704 13 355 1.6 3.2 0.03 1.73 1.73 92 1015.4
20260502012204 13 358 4.8 9.7 0.03 1.73 1.73 91 1014.6
20260502011704 13 351 3.2 8.0 0.03 1.73 1.73 91 1014.8
20260502011204 13 356 3.2 8.0 0.00 1.70 1.70 91 1014.5
20260502010704 13 13 3.2 4.8 0.00 1.73 1.70 91 1014.6
20260502005204 13 5 1.6 4.8 0.00 1.73 1.70 91 1014.8
20260502004704 13 5 1.6 4.8 0.00 1.73 1.70 91 1014.9
20260502004204 13 5 3.2 4.8 0.00 1.73 1.70 91 1014.9
20260502003704 13 5 3.2 4.8 0.00 1.73 1.70 90 1014.7
20260502003204 13 5 1.6 3.2 0.03 1.73 1.70 90 1014.5
20260502002704 13 5 1.6 4.8 0.03 1.73 1.70 90 1014.6
20260502001703 14 19 0.0 3.2 0.03 1.73 1.70 89 1014.8
20260502001204 14 19 1.6 3.2 0.03 1.73 1.70 90 1014.7
20260502000703 14 19 1.6 3.2 0.03 1.73 1.70 90 1014.5
20260502000204 14 19 1.6 9.7 0.03 1.73 1.70 90 1014.6
20260501235704 14 6 1.6 4.8 0.03 1.73 1.70 90 1014.4
20260501235204 14 325 1.6 8.0 0.03 1.73 1.70 90 1014.6
20260501234704 14 9 1.6 4.8 0.03 1.73 1.70 90 1014.4
20260501234204 14 28 1.6 4.8 0.03 1.73 1.70 89 1014.4
20260501233703 14 34 1.6 8.0 0.03 1.73 1.70 88 1014.5
20260501233206 14 46 1.6 9.7 0.00 1.70 1.68 87 1014.5
20260501232704 14 54 1.6 4.8 0.00 1.70 1.68 88 1014.3
20260501232204 14 47 3.2 4.8 0.00 1.73 1.68 88 1014.5
20260501231704 14 17 3.2 4.8 0.00 1.73 1.68 87 1014.4
20260501231205 14 353 4.8 8.0 0.00 1.73 1.68 87 1014.4
20260501230204 14 28 0.0 0.0 0.00 1.73 1.68 86 1014.5
20260501225204 14 28 0.0 4.8 0.00 1.75 1.68 85 1014.8
20260501224704 14 10 1.6 4.8 0.00 1.75 1.68 86 1014.8
20260501224204 14 44 3.2 4.8 0.00 1.78 1.68 85 1014.6
20260501223704 14 347 0.0 4.8 0.00 1.78 1.68 85 1014.4
20260501223204 14 55 3.2 8.0 0.00 1.78 1.68 84 1014.2
20260501222204 14 64 3.2 4.8 0.00 1.78 1.68 85 1013.8
20260501221704 14 14 3.2 9.7 0.00 1.80 1.68 85 1013.8
20260501221204 14 35 1.6 4.8 0.00 1.80 1.68 85 1013.8
20260501215703 14 356 4.8 9.7 0.00 1.83 1.68 84 1013.8
20260501215204 14 29 3.2 8.0 0.00 1.83 1.68 85 1013.8
20260501214205 13 2 4.8 8.0 0.00 1.83 1.68 84 1013.8
20260501213704 13 1 3.2 9.7 0.00 1.85 1.68 84 1013.7
20260501213204 13 13 4.8 12.9 0.00 1.85 1.68 84 1013.6
20260501212704 13 3 3.2 9.7 0.00 1.85 1.68 84 1013.8
20260501212204 13 5 3.2 4.8 0.00 1.85 1.68 85 1013.9
20260501211704 13 40 1.6 3.2 0.00 1.85 1.68 84 1013.8
20260501211203 13 52 3.2 11.3 0.00 1.85 1.68 84 1013.8
20260501210704 13 71 4.8 14.5 0.00 1.88 1.68 87 1013.8
20260501205704 13 70 1.6 11.3 0.00 1.91 1.68 87 1013.3
20260501205204 13 69 4.8 12.9 0.00 1.96 1.68 86 1013.0
20260501204704 13 17 3.2 9.7 0.00 1.96 1.68 87 1012.7
20260501204204 13 50 8.0 19.3 0.00 1.98 1.68 86 1012.3
20260501203704 13 54 4.8 8.0 0.00 1.98 1.68 89 1012.3
20260501203204 13 36 4.8 12.9 0.03 1.98 1.68 89 1012.5
20260501202703 13 45 9.7 16.1 0.03 1.98 1.68 88 1012.4
20260501202203 13 69 8.0 22.5 0.03 1.98 1.68 89 1012.3
20260501201703 13 47 9.7 19.3 0.03 1.98 1.68 91 1012.2
20260501201204 13 63 8.0 32.2 0.05 1.98 1.68 91 1012.1
20260501200704 13 7 8.0 19.3 0.05 1.98 1.68 92 1012.2
20260501200204 13 341 8.0 19.3 0.05 1.98 1.68 92 1012.3
20260501194704 13 35 8.0 25.7 0.08 2.03 1.68 92 1012.1
20260501194204 13 41 6.4 24.1 0.08 2.06 1.68 92 1012.6
20260501193704 13 48 8.0 9.7 0.10 2.13 1.68 93 1012.9
20260501193204 13 25 8.0 19.3 0.08 2.16 1.65 93 1013.3
20260501192704 13 52 3.2 12.9 0.08 2.16 1.65 93 1013.6
20260501192204 13 24 4.8 9.7 0.08 2.16 1.65 93 1013.9
20260501191703 13 43 3.2 9.7 0.08 2.16 1.65 93 1014.3
20260501191204 13 43 4.8 12.9 0.05 2.13 1.63 93 1014.4
20260501190704 13 15 4.8 14.5 0.08 2.13 1.63 93 1014.5
20260501190204 13 18 4.8 11.3 0.08 2.13 1.63 93 1014.5
20260501185704 13 354 3.2 9.7 0.05 2.11 1.60 93 1014.6
20260501185204 13 5 8.0 12.9 0.05 2.11 1.60 93 1014.6
20260501184204 13 25 4.8 11.3 0.08 2.11 1.60 94 1014.4
20260501183704 13 46 8.0 11.3 0.05 2.08 1.57 94 1014.5
20260501182704 13 76 4.8 9.7 0.08 2.08 1.57 94 1014.9
20260501182204 13 49 4.8 11.3 0.08 2.08 1.57 94 1015.1
20260501181704 13 26 3.2 8.0 0.10 2.08 1.57 94 1015.4
20260501181204 13 27 4.8 8.0 0.13 2.08 1.57 94 1015.5
20260501180704 13 54 3.2 8.0 0.13 2.06 1.55 94 1015.6
20260501180204 12 17 4.8 11.3 0.15 2.06 1.55 94 1015.5
20260501175704 13 7 4.8 16.1 0.15 2.06 1.55 94 1015.6
20260501174704 12 37 1.6 8.0 0.20 2.06 1.55 94 1015.8
20260501173704 12 53 4.8 11.3 0.20 2.03 1.52 94 1015.9
20260501173204 12 46 3.2 9.7 0.23 2.03 1.52 95 1016.0
20260501171705 12 18 1.6 8.0 0.28 1.98 1.47 95 1016.2
20260501170704 12 35 3.2 8.0 0.30 1.93 1.42 95 1016.5
20260501170204 12 48 3.2 9.7 0.30 1.91 1.40 95 1016.5